Regional Weather Roundup
Issued by NWS

Home | Current Version | Previous Version | Graphics & Text | Print | Product List | Glossary Off
Versions: 1 2 3 4 5 6 7 8 9 10 11 12 13 14 15 16 17 18 19 20 21 22 23 24 25 26 27 28 29 30 31 32 33 34 35 36 37 38 39 40 41 42 43 44 45 46 47 48 49 50

000
ASUS43 KLSX 140859
RWRMO

WEATHER SUMMARY FOR MISSOURI
NATIONAL WEATHER SERVICE SPRINGFIELD MO
400 AM CDT MON JUL 14 2014

NOTE: "FAIR" INDICATES FEW OR NO CLOUDS BELOW 12,000 FEET WITH NO
       SIGNIFICANT WEATHER AND/OR OBSTRUCTIONS TO VISIBILITY.
       CURRENT SKY AND/OR WEATHER CONDITIONS ARE NOT AVAILABLE FOR
       CHILLICOTHE AND FARMINGTON.

MOZ001>031-035>038-043-044-053-054-141000-
...NORTHERN AND WESTERN MISSOURI...

CITY           SKY/WX    TMP DP  RH WIND       PRES   REMARKS
KANSAS CTY INT CLEAR     69  67  93 SW6       29.95F
KANSAS C DTWN  CLEAR     73  69  87 SW5       29.93F
LEE`S SUMMIT   CLEAR     71  67  87 SW3       29.95F
ST JOSEPH      CLEAR     69  68  96 CALM      29.95S FOG
CHILLICOTHE      N/A     69  67  93 CALM      29.94F
KIRKSVILLE     FOG       67  66  97 SW3       29.93F VSB 3/4

$$
MOZ066>068-077>081-088>096-101>105-141000-
...SOUTHWEST MISSOURI...

CITY           SKY/WX    TMP DP  RH WIND       PRES   REMARKS
SPRINGFIELD    CLOUDY    73  71  93 SW5       29.98R
JOPLIN         MOCLDY    72  69  90 CALM      29.98S

$$
MOZ032>034-039>042-045>050-055>058-069>072-141000-
...CENTRAL MISSOURI...

CITY           SKY/WX    TMP DP  RH WIND       PRES   REMARKS
COLUMBIA       FOG       71  70  96 SW5       29.96S VSB 1/4
JEFFERSON CITY CLOUDY    72  71  97 W3        29.95S
ROLLA          FOG       69  69 100 SW3       29.96S VSB 1/4
SEDALIA        FOG       69  68  96 S5        29.97S VSB 3/4
OSAGE BEACH    CLOUDY    72  70  94 CALM      29.97S VSB<1/4

$$
MOZ051-052-059>065-141000-
...EAST CENTRAL MISSOURI...

CITY           SKY/WX    TMP DP  RH WIND       PRES   REMARKS
ST LOUIS INTL  MOCLDY    76  73  91 SW6       29.93F
SPIRIT OF STL  MOCLDY    72  70  93 CALM      29.92F
ST CHARLES     PTCLDY    74  72  93 W5        29.91F

$$
MOZ072>076-082>087-097>100-106>115-141000-
...SOUTH CENTRAL AND SOUTHEAST MISSOURI...

CITY           SKY/WX    TMP DP  RH WIND       PRES   REMARKS
CAPE GIRARDEAU LGT RAIN  72  70  93 E3        29.92F
FARMINGTON     CLOUDY    70  68  94 NW5       29.96R
POPLAR BLUFF   TSTM      72  68  87 NW12      29.95R FOG
WEST PLAINS    TSTM      70  64  81 NW12G22   29.98F

$$


USA.gov is the U.S. government's official web portal to all federal, state and local government web resources and services.